{"data":{"norad_id":64955,"epoch":"2026-09-20T13:51:56.649600Z","epoch_age_seconds":117578,"freshness":"FRESH","line1":"1 64955U 25158Z   26263.57773900  .00010746  00000+0  33467-3 0  9990","line2":"2 64955  97.2821 121.8188 0001872  87.5860 272.5597 15.33448069 64719","mean_motion":15.33448069,"eccentricity":0.0001872,"inclination_deg":97.2821,"raan_deg":121.8188,"arg_perigee_deg":87.586,"mean_anomaly_deg":272.5597,"bstar":0.00033467,"rev_number":6471,"period_min":93.906016715588,"perigee_km":464.25290808928,"apogee_km":466.81517852789,"semimajor_km":6843.6710433086,"source":"CELESTRAK","updated_at":"2026-09-21T09:00:35.491022Z"}}